Regional Weather Roundup
Issued by NWS

Home | Current Version | Previous Version | Text Only | Print | Product List | Glossary Off
Versions: 1 2 3 4 5 6 7 8 9 10 11 12 13 14 15 16 17 18 19 20 21 22 23 24 25 26 27 28 29 30 31 32 33 34 35 36 37 38 39 40 41 42 43 44 45 46 47 48 49 50

000
ASUS43 KMKX 272300
RWRWI

WISCONSIN REGIONAL WEATHER ROUNDUP
NATIONAL WEATHER SERVICE MILWAUKEE/SULLIVAN WI
600 PM CDT SAT AUG 27 2016

NOTE: "FAIR" INDICATES FEW OR NO CLOUDS BELOW 12,000 FEET WITH NO
SIGNIFICANT WEATHER AND/OR OBSTRUCTIONS TO VISIBILITY.

WIZ001-002-006>008-014>016-023>028-280000-
NORTHWEST WISCONSIN

CITY           SKY/WX    TMP DP  RH WIND       PRES   REMARKS
SUPERIOR ARPT  CLOUDY    65  61  86 E3        30.01S
ASHLAND        CLOUDY    64  62  93 NE5       30.03S
HAYWARD        LGT RAIN  62  60  93 NE3       30.02F
SIREN          CLOUDY    63  61  94 CALM      30.01S
CUMBERLAND     CLOUDY    61  61 100 S6        30.02R FOG
RICE LAKE      CLOUDY    63  60  92 E5        30.03S
CHETEK         NOT AVBL
LADYSMITH      DRIZZLE   65  61  88 S5        30.05R
EAU CLAIRE     NOT AVBL
MENOMONIE      CLOUDY    66  63  91 S6        30.01S
NEW RICHMOND   CLOUDY    65  60  86 S6        30.02R
OSCEOLA        CLOUDY    65  61  86 S6        30.04R
$$

WIZ003>005-009-010-017-018-280000-
NORTH CENTRAL WISCONSIN

CITY           SKY/WX    TMP DP  RH WIND       PRES   REMARKS
MANITOWISH WTR NOT AVBL
ARBOR VITAE    CLOUDY    66  59  77 SE3       30.05S
WOODRUFF       CLOUDY    66  59  77 SE3       30.05S
RHINELANDER    CLOUDY    66  60  81 SE8       30.06R
EAGLE RIVER    CLOUDY    66  56  70 E7        30.05S
LAND O LAKES   CLOUDY    66  57  71 SE3       30.06S
PHILLIPS       RAIN      65  61  85 CALM      30.03R
TOMAHAWK       CLOUDY    65  58  77 CALM      30.04F
MEDFORD        CLOUDY    63  63 100 SE6       30.03S
MERRILL        CLOUDY    64  62  91 SE3       30.05S
$$

WIZ029-030-035-036-043>047-280000-
CENTRAL WISCONSIN

CITY           SKY/WX    TMP DP  RH WIND       PRES   REMARKS
WAUSAU         CLOUDY    64  60  87 SE7       30.03S
MOSINEE        CLOUDY    63  63 100 E3        30.05S
MARSHFIELD     CLOUDY    65  61  87 SE7       30.04R
STEVENS POINT  CLOUDY    63  60  91 E3        30.05R
WAUPACA        CLOUDY    67  65  96 CALM      30.04R
WAUTOMA        CLOUDY    66  63  90 E3        30.04R
WISC RAPIDS    CLOUDY    66  63  90 E3        30.05R
CAMP DOUGLAS   CLOUDY    66  64  93 S3        30.04R
$$

WIZ011>013-019>022-031-037>040-048>050-280000-
NORTHEAST WISCONSIN

CITY           SKY/WX    TMP DP  RH WIND       PRES   REMARKS
ANTIGO         CLOUDY    63  60  91 SE3       30.06S
SHAWANO        CLOUDY    67  62  85 CALM      30.05R
OCONTO         NOT AVBL
STURGEON BAY   CLOUDY    63  62  97 NE7       30.04S
GREEN BAY      CLOUDY    64  64 100 NE6       30.04R FOG
MANITOWOC      CLOUDY    64  63  94 N5        30.03R
APPLETON       CLOUDY    64  64 100 VRB5      30.02S FOG
CLINTONVILLE   CLOUDY    64  61  88 CALM      30.04R
OSHKOSH        CLOUDY    66  64  93 N3        30.03R
$$

WIZ032>034-041-042-053>061-280000-
SOUTHWEST WISCONSIN

CITY           SKY/WX    TMP DP  RH WIND       PRES   REMARKS
LA CROSSE      CLOUDY    71  65  81 SE6       30.01R
SPARTA         CLOUDY    66  64  92 E5        30.03S
VIROQUA        CLOUDY    67  67 100 S3        30.04R
BOSCOBEL       CLOUDY    72  67  84 E3        30.03R
PRAIRIE DU CHI CLOUDY    73  65  76 CALM      30.01S
PLATTEVILLE    PTSUNNY   75  71  88 W5        30.03S
$$

WIZ056-057-062-063-064-067-068-280000-
SOUTH CENTRAL WISCONSIN

CITY           SKY/WX    TMP DP  RH WIND       PRES   REMARKS
REEDSBURG      NOT AVBL
BARABOO/DELLS  CLOUDY    65  63  93 CALM      30.03S
LONE ROCK      NOT AVBL
MINERAL POINT  CLOUDY    73  70  88 W5        30.04R
MADISON        PTSUNNY   74  68  81 NW5       30.01S
MIDDLETON      PTSUNNY   75  70  84 NW6       30.02S
WATERTOWN      CLOUDY    76  71  84 NW6       30.01R
MONROE         CLOUDY    79  68  69 SW9       30.02R HX  81
JANESVILLE     MOSUNNY   82  68  61 W8        30.00R HX  85
$$

WIZ051-052-058>065-066-070>072-280000-
SOUTHEAST WISCONSIN

CITY           SKY/WX    TMP DP  RH WIND       PRES   REMARKS
MILWAUKEE      CLOUDY    81  70  69 VRB6      30.00S HX  84
WAUKESHA       PTSUNNY   77  68  73 W6        30.02R
MILWAUKEE/TIMM PTSUNNY   77  66  69 CALM      30.01S
RACINE         CLOUDY    78  70  76 S6        30.02S HX  80
BURLINGTON     CLOUDY    78  69  76 S6        30.00S
KENOSHA        CLOUDY    80  71  74 S6        30.00F HX  84
FOND DU LAC    CLOUDY    68  65  90 N3        30.03R
SHEBOYGAN      CLOUDY    69  66  90 E6        30.02R
WEST BEND      CLOUDY    73  68  83 CALM      30.02R
JUNEAU         CLOUDY    73  68  86 SW6       30.03S
$$

LSZ147-162-280000-
LAKE SUPERIOR

STATION/POSITION TIME  TEMP    WIND        PRES    WAVE
                       AIR SEA DIR/SP/G            HT/PER
                 (UTC) (F)     (DEG/KT/KT) (MB)    (FT/S)
W MID LAKE BUOY  2150   65 67   60/ 12/ 14 1016.5F   1
DEVILS ISLAND    2200   65      80/ 12/ 13 1016.7F
PORT WING        2200   68      40/  4/  5 1016.6S
SAXON HARBOR     2200   67      70/  5/  8 1016.3F
$$

LMZ867-665-643>646-280000-
LAKE MICHIGAN

STATION/POSITION TIME  TEMP    WIND        PRES    WAVE
                       AIR SEA DIR/SP/G            HT/PER
                 (UTC) (F)     (DEG/KT/KT) (MB)    (FT/S)
CHAMBERS ISLAND  2200   66      60/  5/  7 1017.3S
N MID LAKE BUOY  2150   65 70   70/ 10/ 12 1016.5F   1/ 3
NORTHPORT PIER   2200   65      70/  7/  8 1017.3S
SISTER BAY       2107   66     110/  4/  7   N/A
KEWAUNEE LAKESHO 2200   62      30/  5/  9 1016.2F
SHEBOYGAN LAKESH 2200   62      10/ 10/ 10 1015.9F
PORT WASHINGTON  2200   66      70/  3/  4 1016.9R
ATWATER BUOY     2200   63     320/  4/  6   N/A
MILWAUKEE LAKESH 2210   68      40/  7/  7   N/A
S MID LAKE BUOY  2150   75 75  160/ 12/ 14 1015.4F   2/ 4
KENOSHA   LAKESH 2200   72     190/  9/ 12 1015.6S
$$

TC  - TEMPERATURE IN CELSIUS
VSB - VISIBILITY IN STATUTE MILES
WCI - WIND CHILL INDEX
HX  - HEAT INDEX





USA.gov is the U.S. government's official web portal to all federal, state and local government web resources and services.